Flag for United Kingdom Weather past 2 weeks in Horsham, England, United Kingdom

Now
48 °F

Sunny.


Feels Like: 47 °F
Forecast: 53 / 64 °F
Wind: 3 mph from Southwest

Location: London / Gatwick Airport

Current Time: Aug 21, 2014 at 7:50:37 AM

Latest Report: Aug 21, 2014 at 7:20 AM


Visibility: 10 mi

Pressure: 30.04 "Hg

Humidity: 87%

Dew point: 45 °F

Location of HorshamLocation

Historic Weather in Horsham — Graph

°F

Horsham temperature yesterday

Maximum temperature yesterday: 64 °F (at 2:50 PM)
Minimum temperature yesterday: 43 °F (at 6:20 AM)
Average temperature yesterday: 55 °F

Past Weeks' High & Low Weather Summary

 TemperatureHumidityPressure
High77 °F (Aug 6, 3:50 PM)100% (Aug 6, 6:50 AM)30.18 "Hg (Aug 6, 6:50 AM)
Low41 °F (Aug 21, 5:50 AM)42% (Aug 20, 4:50 PM)29.33 "Hg (Aug 10, 12:50 PM)
Average61 °F75%29.85 "Hg
* Reported Aug 6 6:20 AM — Aug 21 6:50 AM, Horsham, Weather by CustomWeather, © 2014

Note: Actual official high and low records may vary slightly from our data, if they occured in-between our weather recording intervals... More about our weather records

Advertising

Horsham weather history for previous 24 hours

 ConditionsComfort  
Time TempWeatherWind HumidityBarometerVisibility
6:50 AM
Aug 21
45 °FClear.2 mph93%30.04 "Hg10 mi
6:20 AM43 °FClear.No wind93%30.04 "Hg10 mi
5:50 AM41 °FClear.No wind100%30.04 "Hg10 mi
5:20 AM43 °FClear.No wind100%30.04 "Hg10 mi
4:50 AM45 °FHaze.2 mph93%30.04 "Hg3 mi
4:20 AM46 °FClear.3 mph87%30.04 "Hg4 mi
3:50 AM46 °FClear.2 mph87%30.04 "Hg10 mi
3:20 AM46 °FClear.3 mph93%30.04 "Hg10 mi
2:50 AM46 °FClear.5 mph87%30.04 "Hg10 mi
2:20 AM46 °FClear.5 mph93%30.04 "Hg10 mi
1:50 AM48 °FClear.3 mph87%30.07 "Hg10 mi
1:20 AM48 °FClear.No wind87%30.07 "Hg10 mi
12:50 AM48 °FClear.2 mph87%30.07 "Hg10 mi
12:20 AM48 °FClear.2 mph82%30.07 "Hg10 mi
11:50 PM
Aug 20
50 °FClear.2 mph82%30.07 "Hg10 mi
11:20 PM50 °FClear.3 mph82%30.07 "Hg10 mi
10:50 PM50 °FClear.2 mph76%30.07 "Hg10 mi
10:20 PM54 °FClear.2 mph72%30.07 "Hg10 mi
9:50 PM54 °FClear.2 mph72%30.07 "Hg10 mi
9:20 PM54 °FClear.6 mph72%30.04 "Hg10 mi
8:50 PM57 °FSunny.3 mph63%30.04 "Hg10 mi
8:20 PM57 °FPassing clouds.5 mph59%30.04 "HgN/A
7:50 PM59 °FSunny.7 mph55%30.04 "Hg10 mi
7:20 PM61 °FSunny.7 mph52%30.04 "Hg10 mi
6:50 PM61 °FSunny.8 mph48%30.01 "Hg10 mi
6:20 PM63 °FSunny.10 mph45%30.01 "Hg10 mi
5:50 PM63 °FPassing clouds.10 mph45%30.01 "HgN/A
5:20 PM64 °FPassing clouds.7 mph43%30.01 "HgN/A
4:50 PM63 °FPassing clouds.10 mph42%30.04 "HgN/A
4:20 PM64 °FPassing clouds.10 mph43%30.04 "HgN/A
3:50 PM64 °FPassing clouds.12 mph46%30.04 "HgN/A
3:20 PM63 °FPassing clouds.9 mph49%30.04 "HgN/A
2:50 PM64 °FPassing clouds.10 mph49%30.04 "HgN/A
2:20 PM63 °FSunny.10 mph49%30.04 "Hg10 mi
1:50 PM63 °FScattered clouds.8 mph49%30.04 "HgN/A
1:20 PM61 °FPassing clouds.9 mph52%30.04 "HgN/A
12:50 PM63 °FScattered clouds.9 mph49%30.04 "HgN/A
12:20 PM63 °FPassing clouds.10 mph49%30.04 "HgN/A
11:50 AM63 °FPassing clouds.9 mph52%30.04 "HgN/A
11:20 AM61 °FPassing clouds.8 mph55%30.04 "HgN/A
10:50 AM59 °FPassing clouds.7 mph59%30.04 "HgN/A
10:20 AM59 °FPassing clouds.8 mph63%30.04 "HgN/A
9:50 AM57 °FPassing clouds.6 mph67%30.04 "HgN/A
9:20 AM55 °FSunny.3 mph72%30.04 "Hg10 mi
8:50 AM54 °FPassing clouds.6 mph77%30.04 "HgN/A
8:20 AM52 °FPassing clouds.6 mph82%30.04 "HgN/A
7:50 AM50 °FSunny.2 mph88%30.04 "Hg10 mi
7:20 AM48 °FSunny.2 mph87%30.04 "Hg10 mi
Weather by CustomWeather, © 2014

See weather overviewHow to use our weather pages